Lumberton, NC

9:15 PM EST on February 25, 2018 (GMT -0500)
Lumberton Municipal

Weather History for KLBT - February, 2011

Change the Weather History Date:

Wednesday, February 23, 2011

  Actual Average Record
Temperature  
Mean Temperature 46 °F 48 °F  
Max Temperature 57 °F 60 °F 79 °F (2018)
Min Temperature 34 °F 37 °F 15 °F (1963)
Degree Days  
Heating Degree Days 19 16  
Month to date heating degree days 385 432  
Since 1 July heating degree days 2475 2151  
Cooling Degree Days 0 0  
Month to date cooling degree days 2 0  
Year to date cooling degree days 2 1  
Moisture  
Dew Point 31 °F    
Average Humidity 62    
Maximum Humidity 85    
Minimum Humidity 38    
Precipitation  
Precipitation 0.00 in 0.11 in 1.47 in (1971)
Month to date precipitation 2.73 2.35  
Year to date precipitation 3.87 5.32  
Sea Level Pressure  
Sea Level Pressure 30.28 in    
Wind  
Wind Speed 6 mph (NE)    
Max Wind Speed 16 mph    
Max Gust Speed 20 mph    
Visibility 10 miles    
Events      
T = Trace of Precipitation, MM = Missing Value Source: NWS Daily Summary

Daily Weather History Graph

Daily Weather History Graph

Search for Another Location

Airport or City:

Trip Planner

Search our weather history database for the weather conditions in past years. The results will help you decide how hot, cold, wet, or windy it might be!

Date:

Astronomy

Feb. 23, 2011 Rise Set
Actual Time 6:53 AM EST 6:06 PM EST
Civil Twilight 6:27 AM EST 6:32 PM EST
Nautical Twilight 5:58 AM EST 7:01 PM EST
Astronomical Twilight 5:29 AM EST 7:30 PM EST
Moon No Moon Rise 9:58 AM EST (2/23)
Length of Visible Light 12h 04m
Length of Day
11h 13m
Waning Gibbous, 64% of the Moon is Illuminated
Feb 23
Waning Gibbous
Feb 24
Last Quarter
Mar 4
New
Mar 12
First Quarter
Mar 19
Full

Hourly Weather History & Observations

Time (EST) Temp. Windchill Dew Point Humidity Pressure Visibility Wind Dir Wind Speed Gust Speed Precip Events Conditions
12:54 AM 39.0 °F 32.8 °F 32.0 °F 76% 30.20 in 10.0 mi East 9.2 mph - N/A   Overcast
1:54 AM 37.9 °F 31.5 °F 30.9 °F 76% 30.21 in 10.0 mi ENE 9.2 mph - N/A   Overcast
3:54 AM 37.0 °F 31.6 °F 28.0 °F 70% 30.22 in 10.0 mi ENE 6.9 mph - N/A   Overcast
5:54 AM 35.1 °F 31.0 °F 28.0 °F 76% 30.27 in 9.0 mi NE 4.6 mph - N/A   Clear
6:54 AM 34.0 °F 26.6 °F 28.0 °F 79% 30.28 in 8.0 mi NE 9.2 mph - N/A   Clear
7:54 AM 36.0 °F 29.6 °F 28.0 °F 73% 30.30 in 10.0 mi NE 8.1 mph - N/A   Clear
8:54 AM 37.9 °F 28.9 °F 27.0 °F 65% 30.32 in 10.0 mi NNE 16.1 mph - N/A   Clear
9:54 AM 42.1 °F 36.6 °F 28.0 °F 58% 30.32 in 10.0 mi NE 9.2 mph 16.1 mph N/A   Clear
10:54 AM 45.0 °F - 28.9 °F 53% 30.33 in - North - - 0.02 in   Clear
11:54 AM 48.0 °F - 28.9 °F 48% 30.32 in 10.0 mi ENE 8.1 mph - N/A   Clear
12:54 PM 51.1 °F - 30.0 °F 44% 30.29 in 10.0 mi NE 6.9 mph - N/A   Clear
1:54 PM 53.1 °F - 30.0 °F 41% 30.27 in 10.0 mi East 4.6 mph - N/A   Clear
3:54 PM 55.9 °F - 30.9 °F 39% 30.26 in 10.0 mi Variable 3.5 mph - N/A   Clear
4:54 PM 55.9 °F - 32.0 °F 40% 30.26 in 10.0 mi NE 3.5 mph - N/A   Clear
5:54 PM 53.1 °F - 30.9 °F 43% 30.27 in 10.0 mi East 3.5 mph - N/A   Clear
6:54 PM 46.9 °F - 34.0 °F 61% 30.27 in 10.0 mi Calm Calm - N/A   Clear
7:54 PM 44.1 °F - 34.0 °F 68% 30.28 in 10.0 mi Calm Calm - N/A   Clear
8:54 PM 39.0 °F - 35.1 °F 86% 30.28 in 10.0 mi Calm Calm - N/A   Clear
9:54 PM 42.1 °F - 36.0 °F 79% 30.30 in 10.0 mi Calm Calm - N/A   Clear
11:54 PM 42.1 °F - 36.0 °F 79% 30.30 in 10.0 mi Calm Calm - N/A   Mostly Cloudy